Probability
0 0 0 0 0 0 0 0 0 0 0 0 0 0 0 0 0 0 0 0 0 0 0 0 0 0 0 0 0 0 0 0 0 0 0 0 0 0 0 0 0 0 3 3
0 0 0 0 0 0 0 0 0 0 0 0 0 0 0 0 0 0 0 0 0 0 0 0 0 0 0 0 0 0 0 0 0 0 0 0 0 0 0 0 0 0 3 3
0 0 0 0 0 0 0 0 0 0 0 0 0 0 0 0 0 0 0 0 0 0 0 0 0 0 0 0 0 0 0 0 0 0 0 0 0 0 0 0 0 0 0 3
0 0 0 0 0 0 0 0 0 0 0 0 0 0 0 0 0 0 0 0 0 0 3 0 0 0 0 0 0 0 0 0 0 0 0 0 0 0 0 0 0 3 3 3
0 0 0 0 0 0 0 0 0 0 0 0 0 0 0 0 0 0 0 0 0 0 3 0 0 0 0 0 0 0 0 0 0 0 0 0 0 0 0 0 0 3 3 3
0 0 0 0 0 0 0 0 0 0 0 0 0 0 0 0 0 0 0 0 0 0 3 0 0 0 0 0 0 0 0 0 0 0 0 0 0 0 0 0 0 0 3 3
0 0 0 0 0 0 0 0 0 0 0 0 0 0 0 0 0 0 0 0 0 0 3 0 3 0 0 3 0 0 0 0 0 0 0 0 0 0 0 0 0 0 0 0
0 0 0 0 0 0 0 0 0 0 0 0 0 0 0 0 0 0 0 0 0 0 3 3 3 0 0 3 3 0 0 0 0 0 0 0 0 0 0 0 0 0 0 0
0 0 0 0 0 0 0 0 0 0 0 0 0 0 0 0 0 0 0 0 0 3 3 3 3 3 0 3 3 0 0 0 0 0 0 0 0 0 0 0 0 0 0 0
0 0 0 0 0 0 0 0 0 0 0 0 0 0 0 0 0 0 0 0 3 3 3 3 0 3 3 0 0 0 3 3 0 0 0 0 0 0 0 0 0 0 0 0
0 0 0 0 0 0 0 0 0 0 0 0 0 0 0 0 0 0 0 0 3 3 3 0 0 0 0 0 0 3 0 0 0 0 0 0 0 0 0 0 0 0 0 0
0 0 0 0 0 0 0 0 0 0 0 0 0 0 0 0 0 0 0 0 0 0 0 0 0 0 0 0 0 0 0 0 0 0 0 0 0 0 0 0 0 0 0 0
0 0 0 0 0 0 0 0 0 0 0 0 0 0 0 0 0 0 0 0 0 0 0 0 0 0 0 0 0 0 0 0 0 0 0 0 0 0 0 0 0 0 0 0
0 0 0 0 0 0 0 0 0 0 0 0 0 0 0 0 0 0 0 0 0 0 0 0 0 0 0 0 0 0 0 0 0 0 0 0 0 0 0 0 0 0 0 0
0 0 0 0 0 0 0 0 0 0 0 0 0 0 0 0 0 0 0 0 0 0 0 0 0 0 0 0 0 0 0 0 0 0 0 0 0 0 0 0 0 0 0 0
0 0 0 0 0 0 0 0 0 0 0 0 0 0 0 0 0 0 0 0 0 0 0 0 0 0 0 0 0 0 0 0 0 0 0 0 0 0 0 0 0 0 0 0
0 0 0 0 0 0 0 0 0 0 0 0 0 0 0 0 0 0 0 0 0 0 0 0 0 0 0 0 0 0 0 0 0 0 0 0 0 0 0 0 0 0 0 0
0 0 0 0 0 0 0 0 0 0 0 0 0 0 0 0 0 0 0 0 0 0 0 0 0 0 0 0 0 0 0 0 0 0 0 0 0 0 0 0 0 0 0 0
0 0 0 0 0 0 0 0 0 0 0 0 0 0 0 0 0 0 0 0 0 0 0 0 0 0 0 0 0 0 0 0 0 0 0 0 0 0 0 0 0 0 0 0
0 0 0 0 0 0 0 0 0 0 0 0 0 0 0 0 0 0 0 0 0 0 0 0 0 0 0 0 0 0 0 0 0 0 0 0 0 0 0 0 0 0 0 0
0 0 0 0 0 0 0 0 0 0 0 0 0 0 0 0 0 0 0 0 0 0 0 0 0 0 0 0 0 0 0 0 0 0 0 0 0 0 0 0 0 0 0 0
0 0 0 0 0 0 0 0 0 0 0 0 0 0 0 0 0 0 0 0 0 0 0 0 0 0 0 0 0 0 0 0 0 0 0 0 0 0 0 0 0 0 0 0
0 0 0 0 0 0 0 0 0 0 0 0 0 0 0 0 0 0 0 0 0 0 0 0 0 0 0 0 0 0 0 0 0 0 0 0 0 0 0 0 0 0 0 0
0 0 0 0 0 0 0 0 0 0 0 0 0 0 0 0 0 0 0 0 0 0 0 0 0 0 0 0 0 0 0 0 0 0 0 0 0 0 0 0 0 0 0 0
0 0 0 0 0 0 0 0 0 0 0 0 0 0 0 0 0 0 0 0 0 0 0 0 0 0 0 0 0 0 0 0 0 0 0 0 0 0 0 0 0 0 0 0
0 0 0 0 0 0 0 0 0 0 0 0 0 0 0 0 0 0 0 0 0 0 0 0 0 0 0 0 0 0 0 0 0 0 0 0 0 0 0 0 0 0 0 0
0 0 0 0 0 0 0 0 0 0 0 0 0 0 0 0 0 0 0 0 0 0 0 0 0 0 0 0 0 0 0 0 0 0 0 0 0 0 0 0 0 0 0 0
Height
5827 5829 5831 5833 5835 5836 5838 5839 5841 5843 5843 5844 5845 5845 5845 5845 5845 5844 5844 5844 5843 5843 5842 5841 5841 5840 5840 5839 5839 5839 5839 5838 5838 5838 5838 5838 5838 5838 5838 5838 5839 5839 5839 5839
5820 5822 5824 5825 5828 5830 5831 5832 5834 5835 5837 5838 5838 5839 5839 5839 5839 5839 5839 5838 5838 5838 5837 5836 5836 5836 5835 5835 5834 5834 5834 5834 5834 5834 5834 5834 5834 5834 5835 5835 5835 5835 5836 5836
5813 5815 5816 5819 5822 5823 5824 5826 5827 5828 5831 5831 5831 5832 5833 5833 5833 5833 5833 5833 5833 5832 5832 5832 5831 5831 5830 5830 5830 5829 5829 5829 5829 5829 5829 5830 5830 5830 5830 5831 5831 5832 5832 5832
5805 5807 5808 5814 5814 5816 5817 5818 5820 5821 5822 5823 5824 5825 5826 5826 5827 5827 5827 5827 5827 5827 5827 5826 5826 5826 5825 5825 5824 5824 5824 5824 5824 5824 5824 5825 5825 5825 5826 5826 5827 5827 5827 5828
5797 5798 5801 5804 5806 5808 5809 5811 5813 5814 5815 5816 5817 5817 5819 5819 5820 5820 5821 5821 5821 5821 5821 5820 5820 5820 5820 5819 5819 5819 5819 5819 5819 5819 5819 5819 5819 5820 5820 5821 5821 5822 5822 5822
5788 5790 5793 5797 5798 5799 5802 5803 5805 5806 5807 5808 5809 5810 5812 5812 5812 5813 5814 5814 5814 5814 5814 5814 5814 5813 5813 5813 5813 5813 5813 5813 5813 5813 5813 5813 5813 5814 5814 5815 5815 5816 5816 5817
5780 5781 5784 5788 5790 5791 5794 5796 5797 5797 5798 5799 5800 5802 5804 5804 5805 5805 5806 5807 5807 5807 5807 5807 5807 5807 5807 5807 5807 5806 5806 5806 5806 5807 5807 5807 5807 5808 5808 5809 5809 5810 5810 5811
5771 5773 5778 5779 5781 5783 5785 5786 5787 5788 5790 5791 5792 5793 5794 5795 5796 5797 5798 5799 5799 5800 5800 5800 5800 5800 5800 5800 5800 5799 5800 5800 5800 5800 5800 5801 5801 5801 5802 5802 5803 5803 5804 5805
5764 5767 5768 5770 5771 5773 5775 5776 5778 5779 5781 5782 5783 5784 5786 5787 5788 5788 5789 5790 5791 5792 5792 5792 5792 5792 5793 5793 5792 5792 5793 5793 5793 5793 5794 5794 5794 5794 5795 5796 5796 5797 5798 5799
5754 5756 5758 5760 5761 5763 5765 5766 5768 5769 5771 5773 5774 5775 5777 5778 5779 5779 5780 5781 5782 5783 5784 5785 5785 5785 5785 5785 5785 5786 5786 5786 5786 5787 5787 5787 5787 5788 5788 5789 5789 5790 5791 5792
5743 5746 5747 5750 5751 5753 5755 5757 5758 5760 5761 5763 5764 5766 5767 5768 5769 5770 5771 5772 5773 5774 5776 5777 5777 5777 5778 5778 5778 5779 5779 5779 5779 5779 5780 5780 5780 5781 5781 5782 5782 5783 5784 5784
5734 5736 5738 5740 5742 5744 5745 5747 5748 5750 5752 5753 5754 5756 5757 5758 5759 5760 5761 5763 5764 5765 5767 5768 5768 5769 5769 5770 5770 5771 5771 5772 5772 5772 5773 5773 5773 5774 5774 5775 5775 5776 5777 5778
5724 5726 5728 5730 5732 5734 5736 5737 5739 5740 5742 5743 5745 5746 5747 5749 5750 5751 5752 5753 5754 5756 5757 5758 5759 5760 5761 5762 5762 5763 5764 5764 5765 5765 5765 5766 5766 5766 5767 5768 5768 5769 5770 5770
5714 5716 5718 5720 5723 5724 5726 5727 5729 5730 5732 5733 5734 5736 5737 5739 5740 5741 5742 5743 5744 5746 5747 5749 5750 5751 5752 5753 5754 5755 5756 5756 5757 5757 5758 5758 5759 5759 5760 5761 5762 5762 5763 5764
5705 5706 5708 5710 5712 5715 5716 5717 5719 5720 5721 5723 5724 5725 5726 5728 5729 5730 5731 5732 5734 5735 5737 5739 5741 5742 5743 5745 5746 5747 5748 5749 5749 5750 5751 5751 5752 5752 5753 5754 5755 5756 5756 5757
5695 5697 5698 5700 5703 5704 5706 5707 5709 5710 5711 5712 5713 5715 5716 5717 5718 5719 5721 5722 5723 5726 5728 5729 5731 5733 5734 5736 5737 5738 5739 5741 5742 5742 5743 5744 5745 5745 5746 5747 5748 5749 5749 5750
5686 5688 5689 5691 5693 5695 5696 5697 5698 5699 5700 5701 5703 5704 5705 5706 5708 5709 5711 5712 5714 5716 5718 5720 5722 5724 5725 5727 5729 5730 5731 5733 5734 5735 5736 5737 5738 5738 5739 5740 5741 5742 5742 5743
5676 5678 5680 5682 5683 5685 5686 5688 5688 5689 5690 5691 5693 5694 5695 5697 5699 5700 5702 5703 5705 5707 5710 5711 5713 5715 5717 5718 5720 5721 5723 5724 5725 5727 5728 5729 5730 5731 5732 5733 5734 5734 5735 5736
5667 5669 5671 5672 5674 5675 5677 5678 5679 5680 5681 5682 5684 5685 5686 5688 5690 5691 5693 5695 5697 5699 5701 5702 5704 5706 5708 5710 5711 5713 5714 5716 5717 5719 5720 5721 5722 5723 5724 5725 5726 5727 5727 5728
5659 5660 5662 5663 5664 5666 5668 5669 5670 5671 5672 5673 5675 5676 5678 5680 5682 5683 5685 5687 5689 5691 5692 5694 5696 5698 5700 5701 5703 5704 5706 5707 5709 5710 5712 5713 5714 5715 5716 5717 5718 5718 5719 5720
5650 5651 5653 5654 5656 5657 5659 5660 5661 5662 5663 5665 5666 5668 5670 5672 5673 5675 5677 5679 5680 5682 5684 5685 5687 5689 5691 5692 5694 5696 5697 5699 5700 5702 5703 5705 5706 5707 5707 5708 5710 5710 5711 5712
5641 5642 5644 5645 5647 5649 5650 5651 5653 5654 5655 5657 5659 5660 5662 5664 5665 5667 5668 5670 5672 5673 5675 5677 5679 5681 5682 5684 5686 5687 5689 5691 5692 5694 5695 5697 5698 5698 5699 5700 5701 5702 5703 5704
5632 5633 5635 5637 5639 5640 5641 5643 5644 5646 5648 5649 5651 5653 5654 5656 5657 5659 5660 5662 5663 5665 5667 5669 5670 5672 5674 5675 5677 5679 5681 5683 5684 5686 5687 5688 5689 5690 5691 5692 5694 5695 5695 5696
5624 5625 5627 5628 5630 5632 5633 5635 5636 5638 5640 5642 5644 5645 5647 5648 5650 5651 5652 5654 5656 5657 5659 5660 5662 5664 5666 5667 5669 5671 5673 5675 5677 5678 5679 5680 5682 5683 5684 5685 5686 5687 5688 5688
5615 5617 5618 5620 5622 5624 5626 5627 5629 5631 5633 5635 5637 5639 5640 5641 5643 5644 5646 5647 5649 5650 5651 5653 5654 5656 5658 5660 5662 5664 5666 5667 5669 5670 5672 5673 5674 5675 5676 5677 5678 5679 5680 5681
5607 5609 5610 5612 5614 5616 5618 5620 5623 5625 5627 5629 5630 5632 5634 5635 5636 5638 5640 5641 5642 5643 5644 5646 5647 5649 5651 5652 5654 5656 5658 5660 5661 5663 5664 5665 5666 5667 5668 5669 5670 5672 5672 5673
5599 5601 5603 5605 5607 5609 5611 5614 5616 5618 5620 5622 5624 5626 5628 5629 5630 5631 5633 5634 5635 5637 5638 5639 5640 5642 5643 5645 5647 5649 5651 5652 5654 5655 5656 5657 5658 5659 5660 5661 5662 5663 5664 5665
Wind_Speed
26 26 25 24 23 23 23 22 22 20 20 18 17 17 17 17 16 16 16 16 16 16 16 16 16 16 16 16 16 16 16 15 15 14 14 14 14 13 13 13 12 12 11 11
27 27 26 26 25 25 25 24 23 22 21 20 19 19 19 18 18 17 17 17 17 17 17 17 17 17 17 17 17 17 17 16 16 15 15 15 15 15 14 14 14 13 13 13
28 28 28 27 26 26 26 26 25 24 22 22 21 21 20 20 19 19 18 18 18 18 17 17 17 18 18 18 18 17 17 17 17 17 16 16 17 16 16 15 15 15 15 14
30 29 29 28 27 27 26 26 26 25 24 23 23 22 22 21 21 20 19 19 19 19 19 19 18 18 18 19 18 18 17 17 17 17 17 17 18 17 17 17 17 16 16 16
31 31 30 29 27 26 26 26 26 26 24 24 24 24 23 23 22 21 20 20 20 20 20 21 20 20 20 19 19 19 19 18 18 18 18 18 18 18 19 19 19 18 18 17
32 32 31 30 28 27 27 27 26 25 25 25 25 25 24 24 24 23 22 22 22 22 22 22 22 22 21 20 20 20 21 21 20 19 19 19 19 20 20 20 20 20 19 18
32 33 32 31 28 27 28 27 26 26 26 26 26 25 25 25 25 25 24 24 24 23 23 22 23 23 22 22 21 21 21 21 20 20 20 20 20 20 20 20 20 20 19 19
33 34 32 31 30 29 29 28 27 27 27 27 26 26 26 26 26 26 26 26 25 24 24 24 24 23 23 22 22 22 21 21 20 20 20 20 20 20 20 20 20 20 20 19
33 34 33 32 31 30 30 29 28 28 28 28 28 27 27 27 26 27 27 27 26 25 25 25 24 24 23 23 23 23 23 22 21 21 21 21 20 20 20 20 20 20 20 20
33 33 33 32 31 31 30 30 29 29 29 29 29 28 28 27 27 28 28 27 26 25 25 25 24 24 24 23 23 23 23 22 22 21 21 21 21 20 20 20 21 21 22 21
33 33 33 32 31 30 30 30 31 31 30 30 30 29 29 28 28 28 27 27 27 26 25 25 25 25 24 24 23 23 23 23 23 22 22 21 21 21 20 20 21 21 21 22
32 32 33 32 32 31 32 32 32 32 31 31 30 29 29 28 28 28 28 28 28 27 26 26 26 26 25 24 24 24 24 24 23 22 22 22 21 20 20 20 20 21 21 22
32 32 32 32 31 31 31 32 32 33 32 31 31 30 30 29 28 28 28 28 28 28 27 27 26 26 26 25 25 24 24 24 24 23 22 21 20 20 20 19 20 20 21 21
33 33 33 32 31 30 30 31 31 32 32 32 32 32 31 31 30 30 29 29 29 29 28 27 27 26 26 25 25 24 24 24 24 24 23 22 21 20 20 20 20 20 21 21
33 34 33 31 31 30 30 30 30 31 32 33 33 32 32 32 32 31 31 30 30 30 29 28 27 27 26 25 25 25 24 24 24 24 23 22 21 20 20 20 20 20 20 21
33 33 32 31 31 31 31 31 31 31 32 32 32 32 32 32 32 31 31 30 29 29 29 28 27 27 27 26 26 25 24 24 24 24 23 22 22 22 21 21 21 22 21 21
32 32 32 31 31 31 31 30 31 31 31 31 30 30 30 30 30 30 30 29 29 29 28 27 27 27 27 27 27 26 25 25 25 24 23 23 23 23 22 22 23 23 23 23
30 30 31 30 29 29 29 29 29 30 30 29 29 29 29 29 28 28 28 29 28 28 27 27 27 27 27 26 27 26 26 26 26 25 25 25 24 23 24 24 23 23 23 24
28 27 27 28 28 28 28 28 28 28 28 28 28 28 28 27 27 27 27 27 27 27 26 27 27 27 27 27 27 27 27 27 26 25 25 25 24 24 24 25 24 25 25 24
26 27 27 27 27 27 27 27 27 26 27 27 28 27 27 26 27 27 26 26 26 26 27 28 28 27 27 27 27 27 27 27 26 26 26 25 25 24 24 24 25 25 25 25
27 27 27 27 27 26 26 26 26 26 26 27 27 26 26 26 27 27 27 27 27 27 28 28 28 28 27 27 27 27 26 25 25 26 25 25 25 24 23 24 24 24 24 24
25 27 27 27 26 26 26 26 26 26 26 25 25 25 25 26 26 27 27 26 26 27 27 28 28 27 27 26 26 26 25 25 25 24 24 23 23 23 23 23 23 24 24 24
25 25 25 25 25 25 25 25 25 25 25 24 24 24 24 24 25 25 26 26 26 26 27 27 27 26 26 25 25 25 24 24 24 24 24 23 23 22 23 23 23 22 23 23
25 25 25 24 24 24 24 24 24 23 23 23 23 23 23 23 23 23 24 24 24 24 25 25 25 25 25 24 24 24 24 24 24 24 24 23 23 23 23 23 24 23 23 23
24 24 24 24 24 23 22 22 23 22 22 22 21 22 21 21 21 21 21 21 22 22 23 23 23 23 23 23 23 23 23 23 23 24 24 24 24 23 23 23 24 24 23 23
24 24 24 24 24 23 22 22 22 21 21 21 20 20 20 19 19 20 21 21 22 22 22 22 22 23 23 23 22 23 23 22 22 23 23 23 23 23 23 23 23 24 23 23
24 24 23 23 23 23 22 22 22 21 21 20 20 20 20 20 20 20 20 20 21 22 22 23 23 23 23 22 22 22 22 22 22 21 22 23 22 22 22 23 23 23 23 23
Wind_Direction
248 249 249 248 248 250 252 254 255 257 260 261 263 267 270 273 275 276 278 278 278 278 278 278 279 279 279 278 276 275 275 277 275 271 267 266 265 262 259 256 255 257 260 262
248 249 249 248 249 251 253 255 257 257 259 262 262 263 266 269 273 274 275 276 277 279 279 278 278 278 279 279 278 275 274 273 271 268 266 265 263 261 260 257 256 257 259 263
249 250 250 250 251 253 254 255 257 259 259 261 261 263 265 267 270 271 271 274 275 277 279 280 279 278 278 278 277 276 274 272 270 267 266 264 263 260 258 259 259 258 258 260
250 251 252 253 253 254 255 256 257 259 259 260 261 263 264 266 267 267 268 270 271 274 276 278 278 277 278 277 275 275 274 274 271 267 265 265 263 259 257 258 259 260 260 259
250 251 253 254 254 255 256 256 258 260 260 261 261 262 263 263 264 267 266 268 270 272 274 276 277 276 275 275 274 273 273 273 272 268 266 264 262 260 258 257 259 260 258 258
250 251 252 254 255 256 257 258 257 259 259 260 260 262 263 263 262 263 265 268 270 271 273 274 274 274 274 274 273 271 271 271 270 267 266 264 262 260 260 259 259 259 259 259
250 252 253 254 255 257 258 259 258 259 259 260 260 260 261 262 262 263 265 267 269 270 272 273 273 273 273 273 273 271 270 269 268 267 266 264 262 260 260 261 261 260 259 259
251 252 254 254 256 256 259 261 260 260 260 260 260 259 260 262 262 263 265 267 267 268 269 271 272 272 272 272 271 269 268 268 268 266 266 266 263 262 260 261 261 260 260 260
252 253 255 256 257 258 260 260 260 260 260 260 260 260 261 262 263 264 264 265 266 266 267 269 270 271 271 271 270 268 267 267 266 266 266 267 265 262 260 260 258 258 260 260
254 254 256 256 257 258 259 259 259 260 258 259 260 260 261 263 263 264 264 264 264 265 265 266 268 270 269 269 268 267 266 267 267 267 268 267 264 262 260 259 258 257 259 260
255 255 255 255 256 256 256 257 258 258 257 258 260 260 261 263 263 263 263 262 262 262 262 263 266 268 267 266 265 265 265 266 266 266 266 266 263 262 259 258 259 259 261 260
254 253 254 255 255 256 256 256 257 256 256 257 259 259 260 261 262 262 262 262 261 262 262 262 264 265 266 264 263 263 264 264 265 265 265 265 264 261 260 259 258 259 261 262
254 254 255 256 257 257 257 258 258 257 257 257 257 259 259 259 261 261 262 263 262 263 262 261 262 263 263 262 261 261 261 263 263 262 263 263 262 261 260 259 257 258 260 261
254 255 255 256 257 258 259 259 259 256 257 258 259 259 259 259 259 260 262 262 261 261 261 261 260 260 260 259 258 259 259 261 262 260 260 261 263 261 260 258 258 259 260 260
254 256 255 255 255 257 259 258 258 257 258 259 259 258 259 258 259 260 261 260 260 259 259 259 257 257 257 257 257 258 258 259 259 259 259 260 260 259 258 258 259 260 260 260
254 255 255 255 255 256 257 258 259 259 258 259 258 258 259 258 258 258 258 258 258 256 256 256 255 255 256 256 256 257 257 257 258 259 258 257 257 258 258 258 258 258 259 259
254 254 256 257 256 257 257 258 260 260 259 259 257 257 257 256 256 257 256 256 255 255 255 255 254 255 255 255 254 255 254 255 257 258 257 257 257 257 257 257 257 258 258 257
256 256 256 257 257 256 256 257 260 259 258 256 255 255 255 254 253 254 255 255 254 253 253 253 252 252 252 253 253 254 254 255 256 257 256 256 258 258 257 258 258 259 258 259
256 256 257 257 255 254 255 256 257 256 255 254 254 254 253 252 251 252 253 254 253 251 250 251 251 250 251 252 252 253 254 254 255 256 256 256 257 258 258 259 260 260 259 260
256 258 258 257 255 256 256 256 256 254 253 252 253 253 251 251 250 251 252 253 252 251 251 251 251 251 252 253 253 253 254 254 253 254 257 257 257 258 257 257 259 260 258 259
258 259 260 258 256 255 255 255 255 254 253 252 252 250 249 250 251 252 253 253 251 250 250 251 253 253 253 252 252 252 253 253 253 254 258 258 257 258 258 257 258 258 258 258
259 259 258 257 256 256 255 254 254 252 251 249 249 248 248 250 252 252 252 253 251 251 251 251 252 252 251 251 251 251 252 252 252 254 256 257 258 260 260 257 257 259 259 258
259 259 257 256 255 255 255 253 251 248 247 246 245 246 247 250 250 251 250 251 251 251 251 251 251 250 249 250 250 250 251 251 251 252 255 258 259 260 260 258 257 258 259 259
257 257 255 254 254 253 251 249 245 244 243 241 241 244 247 249 250 251 252 252 252 252 251 251 252 251 250 251 251 250 250 250 252 253 256 258 260 260 259 258 258 259 259 260
254 254 252 251 251 249 246 244 241 240 241 241 242 244 245 247 249 249 249 251 252 252 251 251 250 248 247 249 250 250 251 251 250 252 256 258 259 259 258 258 257 257 258 261
251 251 250 248 247 244 240 239 239 240 240 238 240 242 244 246 246 248 250 250 250 250 250 249 249 247 245 246 248 248 249 251 252 254 256 256 258 258 256 255 255 257 259 261
249 248 246 244 242 240 237 237 236 237 236 239 241 241 243 247 249 250 251 250 248 248 249 249 250 248 246 246 247 248 249 251 252 255 255 255 256 257 254 253 255 258 260 262